Regional Weather Roundup
Issued by NWS

Home | Current Version | Previous Version | Graphics & Text | Print | Product List | Glossary On
Versions: 1 2 3 4 5 6 7 8 9 10 11 12 13 14 15 16 17 18 19 20 21 22 23 24 25 26 27 28 29 30 31 32 33 34 35 36 37 38 39 40 41 42 43 44 45 46 47 48 49 50
419
ASUS45 KCYS 231310
RWRWY

WYOMING REGIONAL WEATHER ROUNDUP
NATIONAL WEATHER SERVICE CHEYENNE WY
700 AM MDT TUE MAY 23 2017

NOTE:  "FAIR" INDICATES FEW OR NO CLOUDS BELOW 12,000 FEET
WITH NO SIGNIFICANT WEATHER AND/OR OBSTRUCTIONS TO VISIBILITY.

WYZ001-231400-
YELLOWSTONE NATIONAL PARK

CITY           SKY/WX    TMP DP  RH WIND       PRES   REMARKS
LK YELLOWSTONE   N/A     28  26  92 CALM      30.37S
W YELLOWSTONE  NOT AVBL

$$
WYZ002>013-054>058-071-098>099-231400-
NORTHERN WYOMING

CITY           SKY/WX    TMP DP  RH WIND       PRES   REMARKS
JACKSON        SUNNY     34  30  86 CALM      30.33S
CODY           FAIR      42  34  73 W3        30.25R
GREYBULL       FAIR      39  35  86 CALM      30.24R
WORLAND        FAIR      40  39  97 CALM      30.23R
SHERIDAN       FAIR      44  38  79 CALM      30.22R
BUFFALO        FAIR      48  35  60 W7        30.23S
GILLETTE       FAIR      46  40  79 NW5       30.20S
HULETT         FAIR      43  37  81 S3        30.21R
NEWCASTLE      FAIR      37  36  93 N7        30.19S WCI  32

$$
WYZ014>020-022>026-101>103-231400-
CENTRAL WYOMING

CITY           SKY/WX    TMP DP  RH WIND       PRES   REMARKS
BIG PINEY      FAIR      34  31  88 NE5       30.34S WCI  30
PINEDALE       FAIR      32  32 100 CALM      30.35S
DUBOIS         NOT AVBL
LANDER         FAIR      40  33  76 CALM      30.26S
RIVERTON       FAIR      41  36  82 W10       30.26S
CASPER         FAIR      40  38  93 W7        30.25S
DOUGLAS        PTSUNNY   42  37  82 NW10      30.23R

$$
WYZ021-027>030-104>119-231400-
SOUTHERN WYOMING

CITY           SKY/WX    TMP DP  RH WIND       PRES   REMARKS
EVANSTON       FAIR      42  37  82 SE5       30.32S
ROCK SPRINGS   FAIR      36  34  92 S5        30.33S WCI  32
DIXON            N/A     34  33  95 CALM      30.37R
RAWLINS        PTSUNNY   37  33  85 SW9       30.30F WCI  30
SARATOGA       FAIR      32  32 100 SE5       30.32  WCI  27
LARAMIE        FAIR      35  30  82 NW10      30.25S WCI  27
CHEYENNE       CLOUDY    41  34  76 NW16G23   30.22R
TORRINGTON     PTSUNNY   43  39  86 NW7       30.17S

$$




USA.gov is the U.S. government's official web portal to all federal, state and local government web resources and services.